Location: *
(50.0228°S, 177.2688°W)
Time: 18:16:41
(UTC+00:00)

STARLINK-1048 - Pass Details

Date: 07 April 2020
Orbit: 549 x 550 km, 53.0° (Epoch: 02 June)

Event Time Altitude Azimuth Distance (km) Brightness Sun altitude
Rises 05:49:22 0° 250° (WSW) 2,752 8.6 -5.1°
Reaches altitude 10° 05:51:37 10° 249° (WSW) 1,855 7.5 -5.4°
Maximum altitude 05:55:51 82° 162° (SSE) 572 3.7 -6.1°
Drops below altitude 10° 06:00:04 10° 72° (ENE) 1,845 5.7 -6.8°
Enters shadow 06:00:40 - 72° (ENE) 2,085 6.0 -6.9°
